,,,PA_Meas_PMT16A,,PR_Meas_QMR101_102,,RH_Meas_QMH101,,SR_Meas_QMS101,,TA_Meas_QMH101,,GenWind,,GenWind,
date,time,status,PA,status,PR,status,RH,status,SR,status,TA,status,DirAvg,status,SpdAvg,
2009-12-31, 00:00:04,VALID,999.149,VALID,0,VALID,93.2263,VALID,0,VALID,23.389,VALID,73,VALID,0,
2009-12-31, 00:01:04,VALID,999.081,VALID,0,VALID,93.1805,VALID,0,VALID,23.389,VALID,77,VALID,0,
2009-12-31, 00:02:04,VALID,999.07,VALID,0,VALID,93.1043,VALID,0,VALID,23.3677,VALID,82,VALID,0,
2009-12-31, 00:03:04,VALID,999.04,VALID,0,VALID,93.0203,VALID,0,VALID,23.35,VALID,85,VALID,0,
2009-12-31, 00:04:04,VALID,999.048,VALID,0,VALID,92.9135,VALID,0,VALID,23.3482,VALID,86,VALID,0,
2009-12-31, 00:05:04,VALID,999.032,VALID,0,VALID,92.8525,VALID,0,VALID,23.3305,VALID,86,VALID,0,
2009-12-31, 00:06:04,VALID,998.993,VALID,0,VALID,92.8754,VALID,0,VALID,23.35,VALID,86,VALID,0,
2009-12-31, 00:07:04,VALID,998.995,VALID,0,VALID,92.9059,VALID,0,VALID,23.35,VALID,86,VALID,0,
2009-12-31, 00:08:04,VALID,999.027,VALID,0,VALID,92.9288,VALID,0,VALID,23.35,VALID,86,VALID,0,
2009-12-31, 00:09:04,VALID,998.998,VALID,0,VALID,92.9669,VALID,0,VALID,23.35,VALID,86,VALID,0,
2009-12-31, 00:10:04,VALID,998.961,VALID,0,VALID,93.0432,VALID,0,VALID,23.389,VALID,86,VALID,0,
2009-12-31, 00:11:04,VALID,998.966,VALID,0,VALID,93.0814,VALID,0,VALID,23.4085,VALID,86,VALID,0,
2009-12-31, 00:12:04,VALID,998.975,VALID,0,VALID,93.0585,VALID,0,VALID,23.428,VALID,86,VALID,0,
2009-12-31, 00:13:04,VALID,998.987,VALID,0,VALID,92.9669,VALID,0,VALID,23.428,VALID,86,VALID,0,
2009-12-31, 00:14:04,VALID,998.987,VALID,0,VALID,92.8525,VALID,0,VALID,23.428,VALID,86,VALID,0,
2009-12-31, 00:15:04,VALID,998.989,VALID,0,VALID,92.8067,VALID,0,VALID,23.4085,VALID,86,VALID,0,
2009-12-31, 00:16:04,VALID,998.953,VALID,0,VALID,92.7075,VALID,0,VALID,23.3695,VALID,86,VALID,0,
2009-12-31, 00:17:04,VALID,998.93,VALID,0,VALID,92.6617,VALID,0,VALID,23.35,VALID,87,VALID,0,
2009-12-31, 00:18:04,VALID,998.907,VALID,0,VALID,92.822,VALID,0,VALID,23.3695,VALID,103,VALID,0,
2009-12-31, 00:19:04,VALID,998.883,VALID,0,VALID,92.9059,VALID,0,VALID,23.389,VALID,106,VALID,0,
2009-12-31, 00:20:04,VALID,998.864,VALID,0,VALID,92.9364,VALID,0,VALID,23.389,VALID,115,VALID,0,
2009-12-31, 00:21:04,VALID,998.844,VALID,0,VALID,92.9517,VALID,0,VALID,23.3695,VALID,118,VALID,0,
2009-12-31, 00:22:04,VALID,998.85,VALID,0,VALID,93.0051,VALID,0,VALID,23.389,VALID,134,VALID,0,
2009-12-31, 00:23:04,VALID,998.801,VALID,0,VALID,93.0737,VALID,0,VALID,23.4085,VALID,134,VALID,0,
2009-12-31, 00:24:04,VALID,998.787,VALID,0,VALID,93.0432,VALID,0,VALID,23.3872,VALID,134,VALID,0,
2009-12-31, 00:25:04,VALID,998.762,VALID,0,VALID,93.0051,VALID,0,VALID,23.4067,VALID,134,VALID,0,
2009-12-31, 00:26:04,VALID,998.743,VALID,0,VALID,92.9364,VALID,0,VALID,23.4067,VALID,134,VALID,0,
2009-12-31, 00:27:04,VALID,998.741,VALID,0,VALID,92.9288,VALID,0,VALID,23.389,VALID,134,VALID,0,
2009-12-31, 00:28:04,VALID,998.717,VALID,0,VALID,92.9822,VALID,0,VALID,23.4085,VALID,134,VALID,0,
2009-12-31, 00:29:04,VALID,998.677,VALID,0,VALID,92.9974,VALID,0,VALID,23.4067,VALID,134,VALID,0,
2009-12-31, 00:30:04,VALID,998.664,VALID,0,VALID,92.9898,VALID,0,VALID,23.4085,VALID,133,VALID,0,
2009-12-31, 00:31:04,VALID,998.603,VALID,0,VALID,92.9364,VALID,0,VALID,23.4085,VALID,128,VALID,0,
2009-12-31, 00:32:04,VALID,998.604,VALID,0,VALID,92.822,VALID,0,VALID,23.4085,VALID,125,VALID,0,
2009-12-31, 00:33:04,VALID,998.585,VALID,0,VALID,92.738,VALID,0,VALID,23.428,VALID,125,VALID,0,
2009-12-31, 00:34:04,VALID,998.617,VALID,0,VALID,92.6465,VALID,0,VALID,23.389,VALID,125,VALID,0,
2009-12-31, 00:35:04,VALID,998.576,VALID,0,VALID,92.6236,VALID,0,VALID,23.389,VALID,125,VALID,0,
2009-12-31, 00:36:04,VALID,998.583,VALID,0,VALID,92.7304,VALID,0,VALID,23.4085,VALID,125,VALID,0,
2009-12-31, 00:37:04,VALID,998.568,VALID,0,VALID,92.7609,VALID,0,VALID,23.428,VALID,93,VALID,0,
2009-12-31, 00:38:04,VALID,998.537,VALID,0,VALID,92.6999,VALID,0,VALID,23.4475,VALID,79,VALID,0.865234,
2009-12-31, 00:39:04,VALID,998.522,VALID,0,VALID,92.4863,VALID,0,VALID,23.428,VALID,79,VALID,0.959766,
2009-12-31, 00:40:04,VALID,998.507,VALID,0,VALID,92.4252,VALID,0,VALID,23.428,VALID,81,VALID,0.917969,
2009-12-31, 00:41:04,VALID,998.549,VALID,0,VALID,92.3566,VALID,0,VALID,23.428,VALID,81,VALID,0.953125,
2009-12-31, 00:42:04,VALID,998.521,VALID,0,VALID,92.2192,VALID,0,VALID,23.4085,VALID,80,VALID,0.974219,
2009-12-31, 00:43:04,VALID,998.527,VALID,0,VALID,92.2879,VALID,0,VALID,23.4298,VALID,79,VALID,0.935547,
2009-12-31, 00:44:04,VALID,998.517,VALID,0,VALID,92.3108,VALID,0,VALID,23.4085,VALID,71,VALID,0.907031,
2009-12-31, 00:45:04,VALID,998.498,VALID,0,VALID,92.2879,VALID,0,VALID,23.3872,VALID,72,VALID,0.442578,
2009-12-31, 00:46:04,VALID,998.506,VALID,0,VALID,92.2497,VALID,0,VALID,23.428,VALID,72,VALID,0.439453,
2009-12-31, 00:47:04,VALID,998.479,VALID,0,VALID,92.2726,VALID,0,VALID,23.4085,VALID,73,VALID,0.722656,
2009-12-31, 00:48:04,VALID,998.469,VALID,0,VALID,92.2268,VALID,0,VALID,23.428,VALID,77,VALID,0.444141,
2009-12-31, 00:49:04,VALID,998.47,VALID,0,VALID,92.2116,VALID,0,VALID,23.428,VALID,90,VALID,1.06328,
2009-12-31, 00:50:04,VALID,998.465,VALID,0,VALID,92.0743,VALID,0,VALID,23.428,VALID,74,VALID,0.64375,
2009-12-31, 00:51:04,VALID,998.451,VALID,0,VALID,91.9903,VALID,0,VALID,23.4067,VALID,88,VALID,0.819922,
2009-12-31, 00:52:04,VALID,998.457,VALID,0,VALID,91.8835,VALID,0,VALID,23.4493,VALID,91,VALID,1.04297,
2009-12-31, 00:53:04,VALID,998.468,VALID,0,VALID,91.7157,VALID,0,VALID,23.428,VALID,94,VALID,0.730469,
2009-12-31, 00:54:04,VALID,998.425,VALID,0,VALID,91.6012,VALID,0,VALID,23.4475,VALID,77,VALID,0.744141,
2009-12-31, 00:55:04,VALID,998.426,VALID,0,VALID,91.5554,VALID,0,VALID,23.4475,VALID,70,VALID,0.805859,
2009-12-31, 00:56:04,VALID,998.413,VALID,0,VALID,91.5097,VALID,0,VALID,23.4671,VALID,71,VALID,0.686719,
2009-12-31, 00:57:04,VALID,998.417,VALID,0,VALID,91.3571,VALID,0,VALID,23.4458,VALID,78,VALID,0.564453,
2009-12-31, 00:58:04,VALID,998.392,VALID,0,VALID,91.2731,VALID,0,VALID,23.4671,VALID,68,VALID,0.388672,
2009-12-31, 00:59:04,VALID,998.377,VALID,0,VALID,91.4105,VALID,0,VALID,23.4671,VALID,50,VALID,0.459766,
2009-12-31, 01:00:04,VALID,998.379,VALID,0,VALID,91.3037,VALID,0,VALID,23.4475,VALID,50,VALID,0,
2009-12-31, 01:01:04,VALID,998.338,VALID,0,VALID,91.3037,VALID,0,VALID,23.4493,VALID,46,VALID,0.579687,
2009-12-31, 01:02:04,VALID,998.338,VALID,0,VALID,91.3647,VALID,0,VALID,23.428,VALID,51,VALID,0.378125,
2009-12-31, 01:03:04,VALID,998.332,VALID,0,VALID,91.3342,VALID,0,VALID,23.4067,VALID,63,VALID,0,
2009-12-31, 01:04:04,VALID,998.322,VALID,0,VALID,91.2808,VALID,0,VALID,23.4085,VALID,63,VALID,0,
2009-12-31, 01:05:04,VALID,998.295,VALID,0,VALID,91.3494,VALID,0,VALID,23.4085,VALID,63,VALID,0,
2009-12-31, 01:06:04,VALID,998.269,VALID,0,VALID,91.4334,VALID,0,VALID,23.389,VALID,63,VALID,0,
2009-12-31, 01:07:04,VALID,998.25,VALID,0,VALID,91.4105,VALID,0,VALID,23.389,VALID,62,VALID,0,
2009-12-31, 01:08:04,VALID,998.2,VALID,0,VALID,91.502,VALID,0,VALID,23.3695,VALID,62,VALID,0,
2009-12-31, 01:09:04,VALID,998.218,VALID,0,VALID,91.4715,VALID,0,VALID,23.3695,VALID,62,VALID,0,
2009-12-31, 01:10:04,VALID,998.185,VALID,0,VALID,91.4715,VALID,0,VALID,23.35,VALID,62,VALID,0,
2009-12-31, 01:11:04,VALID,998.188,VALID,0,VALID,91.5402,VALID,0,VALID,23.3305,VALID,62,VALID,0,
2009-12-31, 01:12:04,VALID,998.167,VALID,0,VALID,91.6241,VALID,0,VALID,23.311,VALID,62,VALID,0,
2009-12-31, 01:13:04,VALID,998.165,VALID,0,VALID,91.7462,VALID,0,VALID,23.311,VALID,62,VALID,0,
2009-12-31, 01:14:04,VALID,998.175,VALID,0,VALID,91.7691,VALID,0,VALID,23.311,VALID,62,VALID,0,
2009-12-31, 01:15:04,VALID,998.163,VALID,0,VALID,91.792,VALID,0,VALID,23.2915,VALID,62,VALID,0,
2009-12-31, 01:16:04,VALID,998.155,VALID,0,VALID,91.8759,VALID,0,VALID,23.2719,VALID,62,VALID,0,
2009-12-31, 01:17:04,VALID,998.201,VALID,0,VALID,91.998,VALID,0,VALID,23.2719,VALID,48,VALID,0,
2009-12-31, 01:18:04,VALID,998.144,VALID,0,VALID,92.1506,VALID,0,VALID,23.2915,VALID,44,VALID,0,
2009-12-31, 01:19:04,VALID,998.162,VALID,0,VALID,92.0514,VALID,0,VALID,23.2915,VALID,44,VALID,0,
2009-12-31, 01:20:04,VALID,998.148,VALID,0,VALID,92.0209,VALID,0,VALID,23.2719,VALID,44,VALID,0,
2009-12-31, 01:21:04,VALID,998.141,VALID,0,VALID,92.0209,VALID,0,VALID,23.2719,VALID,44,VALID,0,
2009-12-31, 01:22:04,VALID,998.136,VALID,0,VALID,92.1506,VALID,0,VALID,23.2719,VALID,44,VALID,0,
2009-12-31, 01:23:04,VALID,998.123,VALID,0,VALID,92.204,VALID,0,VALID,23.2719,VALID,52,VALID,0,
2009-12-31, 01:24:04,VALID,998.105,VALID,0,VALID,92.2726,VALID,0,VALID,23.2915,VALID,71,VALID,0,
2009-12-31, 01:25:04,VALID,998.125,VALID,0,VALID,92.4176,VALID,0,VALID,23.3305,VALID,86,VALID,0,
2009-12-31, 01:26:04,VALID,998.106,VALID,0,VALID,92.326,VALID,0,VALID,23.3287,VALID,83,VALID,0,
2009-12-31, 01:27:04,VALID,998.104,VALID,0,VALID,92.2879,VALID,0,VALID,23.3677,VALID,74,VALID,0,
2009-12-31, 01:28:04,VALID,998.088,VALID,0,VALID,91.914,VALID,0,VALID,23.389,VALID,91,VALID,0,
2009-12-31, 01:29:04,VALID,998.062,VALID,0,VALID,91.8911,VALID,0,VALID,23.4085,VALID,91,VALID,0,
2009-12-31, 01:30:04,VALID,998.097,VALID,0,VALID,91.8988,VALID,0,VALID,23.3872,VALID,91,VALID,0,
2009-12-31, 01:31:04,VALID,998.077,VALID,0,VALID,91.8835,VALID,0,VALID,23.4263,VALID,91,VALID,0,
2009-12-31, 01:32:04,VALID,998.087,VALID,0,VALID,91.792,VALID,0,VALID,23.428,VALID,91,VALID,0,
2009-12-31, 01:33:04,VALID,998.052,VALID,0,VALID,91.7843,VALID,0,VALID,23.4475,VALID,91,VALID,0,
2009-12-31, 01:34:04,VALID,998.083,VALID,0,VALID,91.6088,VALID,0,VALID,23.428,VALID,91,VALID,0,
2009-12-31, 01:35:04,VALID,998.07,VALID,0,VALID,91.6851,VALID,0,VALID,23.428,VALID,91,VALID,0,
2009-12-31, 01:36:04,VALID,998.069,VALID,0,VALID,91.7309,VALID,0,VALID,23.428,VALID,91,VALID,0,
2009-12-31, 01:37:04,VALID,998.057,VALID,0,VALID,91.8759,VALID,0,VALID,23.4475,VALID,91,VALID,0,
2009-12-31, 01:38:04,VALID,998.06,VALID,0,VALID,91.7462,VALID,0,VALID,23.4475,VALID,91,VALID,0,
2009-12-31, 01:39:04,VALID,998.052,VALID,0,VALID,91.7157,VALID,0,VALID,23.4671,VALID,91,VALID,0,
2009-12-31, 01:40:04,VALID,998.03,VALID,0,VALID,91.6623,VALID,0,VALID,23.4671,VALID,91,VALID,0,
2009-12-31, 01:41:04,VALID,998.015,VALID,0,VALID,91.6165,VALID,0,VALID,23.4866,VALID,91,VALID,0,
2009-12-31, 01:42:04,VALID,998.005,VALID,0,VALID,91.4486,VALID,0,VALID,23.4671,VALID,92,VALID,0,
2009-12-31, 01:43:04,VALID,997.992,VALID,0,VALID,91.2121,VALID,0,VALID,23.4475,VALID,120,VALID,0,
2009-12-31, 01:44:04,VALID,997.947,VALID,0,VALID,91.2197,VALID,0,VALID,23.428,VALID,120,VALID,0,
2009-12-31, 01:45:04,VALID,997.944,VALID,0,VALID,91.296,VALID,0,VALID,23.428,VALID,120,VALID,0,
2009-12-31, 01:46:04,VALID,997.954,VALID,0,VALID,91.3723,VALID,0,VALID,23.4475,VALID,121,VALID,0,
2009-12-31, 01:47:04,VALID,997.94,VALID,0,VALID,91.2503,VALID,0,VALID,23.4067,VALID,121,VALID,0,
2009-12-31, 01:48:04,VALID,997.96,VALID,0,VALID,91.3189,VALID,0,VALID,23.428,VALID,121,VALID,0,
2009-12-31, 01:49:04,VALID,997.976,VALID,0,VALID,91.3037,VALID,0,VALID,23.389,VALID,121,VALID,0,
2009-12-31, 01:50:04,VALID,997.966,VALID,0,VALID,91.3113,VALID,0,VALID,23.3677,VALID,121,VALID,0,
2009-12-31, 01:51:04,VALID,997.979,VALID,0,VALID,91.3647,VALID,0,VALID,23.3695,VALID,121,VALID,0,
2009-12-31, 01:52:04,VALID,997.936,VALID,0,VALID,91.3723,VALID,0,VALID,23.3305,VALID,121,VALID,0,
2009-12-31, 01:53:04,VALID,997.976,VALID,0,VALID,91.502,VALID,0,VALID,23.311,VALID,121,VALID,0,
2009-12-31, 01:54:04,VALID,997.946,VALID,0,VALID,91.708,VALID,0,VALID,23.311,VALID,121,VALID,0,
2009-12-31, 01:55:04,VALID,997.901,VALID,0,VALID,91.8148,VALID,0,VALID,23.311,VALID,121,VALID,0,
2009-12-31, 01:56:04,VALID,997.924,VALID,0,VALID,91.7767,VALID,0,VALID,23.2702,VALID,121,VALID,0,
2009-12-31, 01:57:04,VALID,997.897,VALID,0,VALID,91.8683,VALID,0,VALID,23.2719,VALID,121,VALID,0,
2009-12-31, 01:58:04,VALID,997.906,VALID,0,VALID,91.998,VALID,0,VALID,23.2702,VALID,121,VALID,0,
2009-12-31, 01:59:04,VALID,997.877,VALID,0,VALID,92.0514,VALID,0,VALID,23.2719,VALID,120,VALID,0,
2009-12-31, 02:00:04,VALID,997.877,VALID,0,VALID,92.1658,VALID,0,VALID,23.2915,VALID,89,VALID,0,
2009-12-31, 02:01:04,VALID,997.874,VALID,0,VALID,91.9217,VALID,0,VALID,23.2507,VALID,87,VALID,0,
2009-12-31, 02:02:04,VALID,997.867,VALID,0,VALID,91.7309,VALID,0,VALID,23.2507,VALID,87,VALID,0,
2009-12-31, 02:03:04,VALID,997.895,VALID,0,VALID,91.7233,VALID,0,VALID,23.2312,VALID,87,VALID,0,
2009-12-31, 02:04:04,VALID,997.894,VALID,0,VALID,91.7614,VALID,0,VALID,23.2329,VALID,87,VALID,0,
2009-12-31, 02:05:04,VALID,997.869,VALID,0,VALID,91.9064,VALID,0,VALID,23.2329,VALID,87,VALID,0,
2009-12-31, 02:06:04,VALID,997.881,VALID,0,VALID,92.0209,VALID,0,VALID,23.2329,VALID,87,VALID,0,
2009-12-31, 02:07:04,VALID,997.845,VALID,0,VALID,91.9064,VALID,0.112286,VALID,23.2134,VALID,87,VALID,0,
2009-12-31, 02:08:04,VALID,997.856,VALID,0,VALID,91.7233,VALID,0,VALID,23.1726,VALID,87,VALID,0,
2009-12-31, 02:09:04,VALID,997.879,VALID,0,VALID,91.7233,VALID,0,VALID,23.1549,VALID,87,VALID,0,
2009-12-31, 02:10:04,VALID,997.825,VALID,0,VALID,91.853,VALID,0,VALID,23.1159,VALID,87,VALID,0,
2009-12-31, 02:11:04,VALID,997.847,VALID,0,VALID,92.0361,VALID,0,VALID,23.0751,VALID,87,VALID,0,
2009-12-31, 02:12:04,VALID,997.858,VALID,0,VALID,92.1506,VALID,0,VALID,23.0964,VALID,87,VALID,0,
2009-12-31, 02:13:04,VALID,997.845,VALID,0,VALID,92.1353,VALID,0,VALID,23.0769,VALID,87,VALID,0,
2009-12-31, 02:14:04,VALID,997.846,VALID,0,VALID,92.0666,VALID,0,VALID,22.9971,VALID,87,VALID,0,
2009-12-31, 02:15:04,VALID,997.878,VALID,0,VALID,92.1124,VALID,0,VALID,22.9988,VALID,87,VALID,0,
2009-12-31, 02:16:04,VALID,997.874,VALID,0,VALID,92.2803,VALID,0,VALID,22.9988,VALID,87,VALID,0,
2009-12-31, 02:17:04,VALID,997.859,VALID,0,VALID,92.4557,VALID,0,VALID,22.9988,VALID,87,VALID,0,
2009-12-31, 02:18:04,VALID,997.824,VALID,0,VALID,92.5626,VALID,0,VALID,22.9988,VALID,87,VALID,0,
2009-12-31, 02:19:04,VALID,997.828,VALID,0,VALID,92.6923,VALID,0,VALID,23.0183,VALID,87,VALID,0,
2009-12-31, 02:20:04,VALID,997.868,VALID,0,VALID,92.7762,VALID,0,VALID,22.9988,VALID,87,VALID,0,
2009-12-31, 02:21:04,VALID,997.861,VALID,0,VALID,92.8067,VALID,0,VALID,22.9988,VALID,87,VALID,0,
2009-12-31, 02:22:04,VALID,997.846,VALID,0,VALID,92.8296,VALID,0,VALID,22.9988,VALID,87,VALID,0,
2009-12-31, 02:23:04,VALID,997.812,VALID,0,VALID,93.0737,VALID,0,VALID,23.0378,VALID,91,VALID,0,
2009-12-31, 02:24:04,VALID,997.792,VALID,0,VALID,93.1805,VALID,0,VALID,23.0964,VALID,115,VALID,0,
2009-12-31, 02:25:04,VALID,997.773,VALID,0,VALID,93.0585,VALID,0,VALID,23.1159,VALID,115,VALID,0,
2009-12-31, 02:26:04,VALID,997.794,VALID,0,VALID,92.8983,VALID,0,VALID,23.1354,VALID,112,VALID,0,
2009-12-31, 02:27:04,VALID,997.773,VALID,0,VALID,92.7075,VALID,0,VALID,23.1549,VALID,109,VALID,0,
2009-12-31, 02:28:04,VALID,997.767,VALID,0,VALID,92.5091,VALID,0,VALID,23.1744,VALID,108,VALID,0,
2009-12-31, 02:29:04,VALID,997.737,VALID,0,VALID,92.4023,VALID,0,VALID,23.1744,VALID,102,VALID,0.390625,
2009-12-31, 02:30:04,VALID,997.748,VALID,0,VALID,92.3794,VALID,0,VALID,23.1726,VALID,96,VALID,0.940625,
2009-12-31, 02:31:04,VALID,997.735,VALID,0,VALID,92.2192,VALID,0,VALID,23.2134,VALID,100,VALID,0.850391,
2009-12-31, 02:32:04,VALID,997.721,VALID,0,VALID,92.12,VALID,0.112286,VALID,23.2117,VALID,107,VALID,0.825781,
2009-12-31, 02:33:04,VALID,997.714,VALID,0,VALID,92.12,VALID,0.112286,VALID,23.2329,VALID,107,VALID,0.798828,
2009-12-31, 02:34:04,VALID,997.697,VALID,0,VALID,92.1048,VALID,0,VALID,23.2117,VALID,107,VALID,0.691406,
2009-12-31, 02:35:04,VALID,997.696,VALID,0,VALID,92.1124,VALID,0,VALID,23.2134,VALID,107,VALID,0.6,
2009-12-31, 02:36:04,VALID,997.677,VALID,0,VALID,92.0743,VALID,0,VALID,23.2329,VALID,107,VALID,0.552734,
2009-12-31, 02:37:04,VALID,997.657,VALID,0,VALID,91.9522,VALID,0,VALID,23.2134,VALID,108,VALID,0.615234,
2009-12-31, 02:38:04,VALID,997.638,VALID,0,VALID,91.914,VALID,0,VALID,23.1744,VALID,108,VALID,0.492578,
2009-12-31, 02:39:04,VALID,997.635,VALID,0,VALID,91.9903,VALID,0,VALID,23.1744,VALID,108,VALID,0,
2009-12-31, 02:40:04,VALID,997.645,VALID,0,VALID,92.0819,VALID,0,VALID,23.1744,VALID,108,VALID,0,
2009-12-31, 02:41:04,VALID,997.611,VALID,0,VALID,92.0666,VALID,0,VALID,23.1549,VALID,108,VALID,0,
2009-12-31, 02:42:04,VALID,997.609,VALID,0,VALID,92.1506,VALID,0,VALID,23.1549,VALID,108,VALID,0,
2009-12-31, 02:43:04,VALID,997.581,VALID,0,VALID,92.12,VALID,0,VALID,23.1354,VALID,108,VALID,0,
2009-12-31, 02:44:04,VALID,997.553,VALID,0,VALID,92.1887,VALID,0,VALID,23.1141,VALID,108,VALID,0,
2009-12-31, 02:45:04,VALID,997.527,VALID,0,VALID,92.265,VALID,0,VALID,23.1354,VALID,108,VALID,0,
2009-12-31, 02:46:04,VALID,997.527,VALID,0,VALID,92.2726,VALID,0,VALID,23.1159,VALID,108,VALID,0,
2009-12-31, 02:47:04,VALID,997.505,VALID,0,VALID,92.4405,VALID,0,VALID,23.0946,VALID,108,VALID,0,
2009-12-31, 02:48:04,VALID,997.5,VALID,0,VALID,92.4863,VALID,0,VALID,23.1159,VALID,105,VALID,0,
2009-12-31, 02:49:04,VALID,997.484,VALID,0,VALID,92.5168,VALID,0,VALID,23.0946,VALID,105,VALID,0,
2009-12-31, 02:50:05,VALID,997.486,VALID,0,VALID,92.5473,VALID,0.112286,VALID,23.1159,VALID,102,VALID,0,
2009-12-31, 02:51:05,VALID,997.483,VALID,0,VALID,92.6236,VALID,0,VALID,23.1354,VALID,102,VALID,0,
2009-12-31, 02:52:05,VALID,997.474,VALID,0,VALID,92.677,VALID,0,VALID,23.1549,VALID,102,VALID,0,
2009-12-31, 02:53:05,VALID,997.474,VALID,0,VALID,92.6617,VALID,0,VALID,23.1549,VALID,102,VALID,0,
2009-12-31, 02:54:05,VALID,997.5,VALID,0,VALID,92.6007,VALID,0,VALID,23.1549,VALID,102,VALID,0,
2009-12-31, 02:55:05,VALID,997.476,VALID,0,VALID,92.5778,VALID,0,VALID,23.1336,VALID,102,VALID,0,
2009-12-31, 02:56:05,VALID,997.483,VALID,0,VALID,92.4939,VALID,0,VALID,23.1141,VALID,101,VALID,0,
2009-12-31, 02:57:05,VALID,997.48,VALID,0,VALID,92.4634,VALID,0,VALID,23.1159,VALID,101,VALID,0,
2009-12-31, 02:58:05,VALID,997.471,VALID,0,VALID,92.5244,VALID,0,VALID,23.1159,VALID,101,VALID,0,
2009-12-31, 02:59:05,VALID,997.492,VALID,0,VALID,92.5397,VALID,0,VALID,23.1159,VALID,101,VALID,0,
2009-12-31, 03:00:05,VALID,997.505,VALID,0,VALID,92.5244,VALID,0,VALID,23.0964,VALID,101,VALID,0,
2009-12-31, 03:01:05,VALID,997.526,VALID,0,VALID,92.4786,VALID,0,VALID,23.0769,VALID,101,VALID,0,
2009-12-31, 03:02:05,VALID,997.541,VALID,0,VALID,92.4939,VALID,0,VALID,23.0361,VALID,101,VALID,0,
2009-12-31, 03:03:05,VALID,997.517,VALID,0,VALID,92.5778,VALID,0,VALID,23.0573,VALID,101,VALID,0,
2009-12-31, 03:04:05,VALID,997.536,VALID,0,VALID,92.6465,VALID,0,VALID,23.0573,VALID,101,VALID,0,
2009-12-31, 03:05:05,VALID,997.534,VALID,0,VALID,92.3642,VALID,0,VALID,22.9776,VALID,101,VALID,0,
2009-12-31, 03:06:05,VALID,997.54,VALID,0,VALID,92.471,VALID,0,VALID,22.9776,VALID,130,VALID,0,
2009-12-31, 03:07:05,VALID,997.525,VALID,0,VALID,92.6923,VALID,0,VALID,22.9988,VALID,130,VALID,0,
2009-12-31, 03:08:05,VALID,997.521,VALID,0,VALID,92.8372,VALID,0,VALID,23.0183,VALID,130,VALID,0,
2009-12-31, 03:09:05,VALID,997.55,VALID,0,VALID,92.7838,VALID,0,VALID,23.0166,VALID,130,VALID,0,
2009-12-31, 03:10:05,VALID,997.564,VALID,0,VALID,92.7533,VALID,0,VALID,23.0378,VALID,129,VALID,0,
2009-12-31, 03:11:05,VALID,997.546,VALID,0,VALID,92.6465,VALID,0.112286,VALID,23.0378,VALID,125,VALID,0,
2009-12-31, 03:12:05,VALID,997.572,VALID,0,VALID,92.6388,VALID,0,VALID,23.0183,VALID,125,VALID,0,
2009-12-31, 03:13:05,VALID,997.55,VALID,0,VALID,92.5626,VALID,0,VALID,22.9988,VALID,125,VALID,0,
2009-12-31, 03:14:05,VALID,997.574,VALID,0,VALID,92.6388,VALID,0,VALID,22.9988,VALID,125,VALID,0,
2009-12-31, 03:15:05,VALID,997.578,VALID,0,VALID,92.7075,VALID,0,VALID,22.9988,VALID,125,VALID,0,
2009-12-31, 03:16:05,VALID,997.56,VALID,0,VALID,92.7075,VALID,0,VALID,22.9988,VALID,125,VALID,0,
2009-12-31, 03:17:05,VALID,997.577,VALID,0,VALID,92.7838,VALID,0,VALID,22.9776,VALID,125,VALID,0,
2009-12-31, 03:18:05,VALID,997.58,VALID,0,VALID,92.8143,VALID,0,VALID,22.9776,VALID,125,VALID,0,
2009-12-31, 03:19:05,VALID,997.614,VALID,0,VALID,92.8067,VALID,0,VALID,22.9776,VALID,125,VALID,0,
2009-12-31, 03:20:05,VALID,997.598,VALID,0,VALID,92.7457,VALID,0,VALID,22.9793,VALID,125,VALID,0,
2009-12-31, 03:21:05,VALID,997.613,VALID,0,VALID,92.6999,VALID,0,VALID,22.9598,VALID,112,VALID,0,
2009-12-31, 03:22:05,VALID,997.633,VALID,0,VALID,92.6388,VALID,0,VALID,22.9598,VALID,113,VALID,0,
2009-12-31, 03:23:05,VALID,997.642,VALID,0,VALID,92.6465,VALID,0,VALID,22.9598,VALID,118,VALID,0,
2009-12-31, 03:24:05,VALID,997.643,VALID,0,VALID,92.6083,VALID,0,VALID,22.9598,VALID,118,VALID,0,
2009-12-31, 03:25:05,VALID,997.637,VALID,0,VALID,92.6465,VALID,0,VALID,22.9598,VALID,118,VALID,0,
2009-12-31, 03:26:05,VALID,997.667,VALID,0,VALID,92.5854,VALID,0,VALID,22.9385,VALID,118,VALID,0,
2009-12-31, 03:27:05,VALID,997.647,VALID,0,VALID,92.5702,VALID,0,VALID,22.9208,VALID,118,VALID,0,
2009-12-31, 03:28:05,VALID,997.666,VALID,0,VALID,92.5854,VALID,0,VALID,22.9403,VALID,118,VALID,0,
2009-12-31, 03:29:05,VALID,997.647,VALID,0,VALID,92.5854,VALID,0,VALID,22.9208,VALID,118,VALID,0,
2009-12-31, 03:30:05,VALID,997.642,VALID,0,VALID,92.5854,VALID,0,VALID,22.9208,VALID,115,VALID,0,
2009-12-31, 03:31:05,VALID,997.653,VALID,0,VALID,92.616,VALID,0,VALID,22.9013,VALID,97,VALID,0,
2009-12-31, 03:32:05,VALID,997.652,VALID,0,VALID,92.677,VALID,0,VALID,22.9208,VALID,97,VALID,0,
2009-12-31, 03:33:05,VALID,997.654,VALID,0,VALID,92.6923,VALID,0,VALID,22.9208,VALID,97,VALID,0,
2009-12-31, 03:34:05,VALID,997.665,VALID,0,VALID,92.7457,VALID,0,VALID,22.9598,VALID,97,VALID,0,
2009-12-31, 03:35:05,VALID,997.654,VALID,0,VALID,92.7685,VALID,0,VALID,22.9598,VALID,97,VALID,0,
2009-12-31, 03:36:05,VALID,997.666,VALID,0,VALID,92.7762,VALID,0,VALID,23.0006,VALID,97,VALID,0,
2009-12-31, 03:37:05,VALID,997.645,VALID,0,VALID,92.7304,VALID,0,VALID,22.9598,VALID,97,VALID,0,
2009-12-31, 03:38:05,VALID,997.678,VALID,0,VALID,92.677,VALID,0,VALID,22.9598,VALID,52,VALID,0,
2009-12-31, 03:39:05,VALID,997.713,VALID,0,VALID,92.5778,VALID,0,VALID,22.9598,VALID,16,VALID,0,
2009-12-31, 03:40:05,VALID,997.704,VALID,0,VALID,92.6083,VALID,0,VALID,22.9793,VALID,10,VALID,0,
2009-12-31, 03:41:05,VALID,997.741,VALID,0,VALID,92.5778,VALID,0,VALID,22.9598,VALID,10,VALID,0,
2009-12-31, 03:42:05,VALID,997.768,VALID,0,VALID,92.6007,VALID,0,VALID,22.9598,VALID,10,VALID,0,
2009-12-31, 03:43:05,VALID,997.758,VALID,0,VALID,92.5626,VALID,0,VALID,22.9403,VALID,10,VALID,0,
2009-12-31, 03:44:05,VALID,997.794,VALID,0,VALID,92.6007,VALID,0,VALID,22.9208,VALID,10,VALID,0,
2009-12-31, 03:45:05,VALID,997.818,VALID,0,VALID,92.6236,VALID,0,VALID,22.9013,VALID,10,VALID,0,
2009-12-31, 03:46:05,VALID,997.816,VALID,0,VALID,92.8372,VALID,0,VALID,22.9208,VALID,10,VALID,0,
2009-12-31, 03:47:05,VALID,997.824,VALID,0,VALID,92.8372,VALID,0,VALID,22.9208,VALID,10,VALID,0,
2009-12-31, 03:48:05,VALID,997.821,VALID,0,VALID,92.8677,VALID,0,VALID,22.9208,VALID,10,VALID,0,
2009-12-31, 03:49:05,VALID,997.838,VALID,0,VALID,92.8372,VALID,0,VALID,22.9013,VALID,10,VALID,0,
2009-12-31, 03:50:05,VALID,997.838,VALID,0,VALID,92.8601,VALID,0,VALID,22.9013,VALID,10,VALID,0,
2009-12-31, 03:51:05,VALID,997.853,VALID,0,VALID,92.8906,VALID,0,VALID,22.9013,VALID,10,VALID,0,
2009-12-31, 03:52:05,VALID,997.835,VALID,0,VALID,92.9517,VALID,0,VALID,22.9403,VALID,10,VALID,0,
2009-12-31, 03:53:05,VALID,997.842,VALID,0,VALID,93.0127,VALID,0,VALID,22.9208,VALID,10,VALID,0,
2009-12-31, 03:54:05,VALID,997.841,VALID,0,VALID,92.9974,VALID,0,VALID,22.9403,VALID,10,VALID,0,
2009-12-31, 03:55:05,VALID,997.843,VALID,0,VALID,92.9593,VALID,0,VALID,22.9598,VALID,10,VALID,0,
2009-12-31, 03:56:05,VALID,997.833,VALID,0,VALID,92.8906,VALID,0,VALID,22.9403,VALID,10,VALID,0,
2009-12-31, 03:57:05,VALID,997.839,VALID,0,VALID,92.9211,VALID,0,VALID,22.9385,VALID,10,VALID,0,
2009-12-31, 03:58:05,VALID,997.836,VALID,0,VALID,92.9822,VALID,0,VALID,22.9598,VALID,10,VALID,0,
2009-12-31, 03:59:05,VALID,997.833,VALID,0,VALID,92.9211,VALID,0,VALID,22.9793,VALID,10,VALID,0,